Southbury, CT

2:45 PM EST on January 16, 2017 (GMT -0500)
Waterbury-Oxford

Weather History for KOXC - November, 2012

Change the Weather History Date:

Thursday, November 1, 2012

  Actual Average Record
Temperature  
Mean Temperature 44 °F -  
Max Temperature 50 °F 52 °F 73 °F (2003)
Min Temperature 39 °F 35 °F 24 °F (2002)
Degree Days  
Heating Degree Days 20    
Moisture  
Dew Point 37 °F    
Average Humidity 75    
Maximum Humidity 87    
Minimum Humidity 58    
Precipitation  
Precipitation 0.00 in - - ()
Sea Level Pressure  
Sea Level Pressure 29.57 in    
Wind  
Wind Speed 4 mph (WSW)    
Max Wind Speed 8 mph    
Max Gust Speed -    
Visibility 10 miles    
Events      
Averages and records for this station are not official NWS values.
T = Trace of Precipitation, MM = Missing Value Source: NWS Daily Summary

Daily Weather History Graph

Daily Weather History Graph

Search for Another Location

Airport or City:

Trip Planner

Search our weather history database for the weather conditions in past years. The results will help you decide how hot, cold, wet, or windy it might be!

Date:

Astronomy

Nov. 01, 2012 Rise Set
Actual Time 7:24 AM EDT 5:46 PM EDT
Civil Twilight 6:55 AM EDT 6:15 PM EDT
Nautical Twilight 6:23 AM EDT 6:48 PM EDT
Astronomical Twilight 5:50 AM EDT 7:20 PM EDT
Moon 7:40 PM EDT (11/1) 9:56 AM EDT (11/1)
Length of Visible Light 11h 19m
Length of Day
10h 22m
Waning Gibbous, 93% of the Moon is Illuminated
Nov 1
Waning Gibbous
Nov 6
Last Quarter
Nov 13
New
Nov 20
First Quarter
Nov 28
Full

Hourly Weather History & Observations

Time (EDT) Temp. Windchill Dew Point Humidity Pressure Visibility Wind Dir Wind Speed Gust Speed Precip Events Conditions
12:15 AM 42.8 °F 41.1 °F 35.6 °F 76% 29.58 in 10.0 mi WSW 3.5 mph - N/A   Overcast
12:35 AM 42.8 °F 39.3 °F 35.6 °F 76% 29.58 in 10.0 mi SW 5.8 mph - N/A   Overcast
12:55 AM 42.8 °F 40.1 °F 35.6 °F 76% 29.58 in 10.0 mi WSW 4.6 mph - N/A   Overcast
1:16 AM 42.8 °F - 35.6 °F 76% 29.58 in 10.0 mi Calm Calm - N/A   Overcast
1:35 AM 42.8 °F 41.1 °F 35.6 °F 76% 29.58 in 10.0 mi SW 3.5 mph - N/A   Overcast
1:55 AM 42.8 °F 40.1 °F 35.6 °F 76% 29.57 in 10.0 mi SW 4.6 mph - N/A   Overcast
2:15 AM 42.8 °F 40.1 °F 35.6 °F 76% 29.57 in 10.0 mi SW 4.6 mph - N/A   Overcast
2:35 AM 42.8 °F - 35.6 °F 76% 29.56 in 10.0 mi Calm Calm - N/A   Mostly Cloudy
2:55 AM 41.0 °F - 35.6 °F 81% 29.56 in 10.0 mi Calm Calm - N/A   Mostly Cloudy
3:15 AM 42.8 °F 39.3 °F 35.6 °F 76% 29.56 in 10.0 mi SSW 5.8 mph - N/A   Overcast
3:35 AM 42.8 °F 39.3 °F 35.6 °F 76% 29.56 in 10.0 mi SSW 5.8 mph - N/A   Overcast
3:55 AM 42.8 °F 39.3 °F 35.6 °F 76% 29.56 in 10.0 mi SW 5.8 mph - N/A   Overcast
4:15 AM 42.8 °F 40.1 °F 35.6 °F 76% 29.56 in 10.0 mi SW 4.6 mph - N/A   Overcast
4:35 AM 42.8 °F 38.0 °F 35.6 °F 76% 29.56 in 10.0 mi SW 8.1 mph - N/A   Overcast
5:15 AM 41.0 °F 38.0 °F 35.6 °F 81% 29.56 in 10.0 mi SW 4.6 mph - N/A   Mostly Cloudy
5:35 AM 41.0 °F 37.1 °F 35.6 °F 81% 29.56 in 10.0 mi SW 5.8 mph - N/A   Scattered Clouds
5:55 AM 41.0 °F 38.0 °F 35.6 °F 81% 29.56 in 10.0 mi SW 4.6 mph - N/A   Clear
6:45 AM 39.2 °F 35.9 °F 35.6 °F 87% 29.57 in 10.0 mi WSW 4.6 mph - N/A   Partly Cloudy
8:45 AM 42.8 °F 38.0 °F 37.4 °F 81% 29.58 in 10.0 mi SW 8.1 mph - N/A   Clear
9:45 AM 44.6 °F 40.2 °F 37.4 °F 76% 29.58 in 10.0 mi WSW 8.1 mph - N/A   Clear
10:45 AM 46.4 °F 43.5 °F 37.4 °F 71% 29.58 in 10.0 mi West 5.8 mph - N/A   Overcast
11:45 AM 48.2 °F - 37.4 °F 66% 29.58 in 10.0 mi West 5.8 mph - N/A   Mostly Cloudy
12:45 PM 48.2 °F - 37.4 °F 66% 29.56 in 10.0 mi West 4.6 mph - N/A   Mostly Cloudy
1:55 PM 50.0 °F - 37.4 °F 62% 29.54 in 10.0 mi WSW 6.9 mph - N/A   Mostly Cloudy
2:45 PM 50.0 °F - 35.6 °F 58% 29.54 in 10.0 mi WSW 8.1 mph - N/A   Mostly Cloudy
3:45 PM 48.2 °F - 37.4 °F 66% 29.55 in 10.0 mi West 6.9 mph - N/A   Overcast
5:45 PM 48.2 °F - 37.4 °F 66% 29.56 in 10.0 mi West 5.8 mph - N/A   Overcast
6:45 PM 46.4 °F 42.4 °F 37.4 °F 71% 29.58 in 10.0 mi West 8.1 mph - N/A   Overcast
7:55 PM 46.4 °F 45.2 °F 37.4 °F 71% 29.59 in 10.0 mi WNW 3.5 mph - N/A   Scattered Clouds
9:15 PM 44.6 °F 43.1 °F 37.4 °F 76% 29.60 in 10.0 mi WSW 3.5 mph - N/A   Overcast
9:35 PM 44.6 °F - 37.4 °F 76% 29.59 in 10.0 mi Calm Calm - N/A   Overcast
9:55 PM 44.6 °F 42.2 °F 37.4 °F 76% 29.59 in 10.0 mi West 4.6 mph - N/A   Mostly Cloudy
10:15 PM 44.6 °F 42.2 °F 37.4 °F 76% 29.60 in 10.0 mi West 4.6 mph - N/A   Overcast
10:35 PM 44.6 °F 42.2 °F 37.4 °F 76% 29.59 in 10.0 mi West 4.6 mph - N/A   Overcast
10:55 PM 44.6 °F 43.1 °F 37.4 °F 76% 29.60 in 10.0 mi West 3.5 mph - N/A   Overcast
11:15 PM 44.6 °F 42.2 °F 37.4 °F 76% 29.60 in 10.0 mi WSW 4.6 mph - N/A   Overcast
11:35 PM 44.6 °F 42.2 °F 37.4 °F 76% 29.59 in 10.0 mi WSW 4.6 mph - N/A   Overcast
11:55 PM 44.6 °F 42.2 °F 37.4 °F 76% 29.59 in 10.0 mi West 4.6 mph - N/A   Scattered Clouds